Temperature
30 31 32 32 31 32 32 32 31 31 31 30 31 31 29 28 27 26 25 24 23 22 21 20 19 19 19 18 18 18 18 18 17 17 17 17 17 16 16 16 16 16 16 15
29 31 31 31 32 32 32 32 31 31 31 31 31 30 28 27 27 26 25 24 22 21 20 20 19 19 18 18 18 18 17 17 17 17 17 16 16 16 16 16 15 15 15 15
28 30 30 30 31 32 32 32 32 31 31 31 30 29 28 27 26 25 24 23 22 21 20 19 19 19 18 18 18 17 17 17 16 17 16 16 16 16 15 15 15 15 15 15
27 28 27 30 32 32 32 32 32 31 31 31 29 28 27 26 25 24 24 22 21 20 20 19 19 18 18 17 17 17 17 16 16 16 16 16 15 15 15 14 14 14 14 14
27 27 28 30 31 32 31 30 31 31 30 30 29 27 26 25 25 24 23 22 21 20 20 19 18 18 18 17 17 16 16 16 16 15 15 15 15 15 14 14 14 14 14 13
26 26 26 29 31 31 31 29 30 29 29 29 28 27 26 24 24 23 22 21 20 20 19 19 18 18 17 17 17 16 16 16 15 15 15 15 15 14 14 14 13 13 13 13
25 26 27 29 30 30 28 27 28 28 28 27 27 26 24 23 22 21 21 20 20 19 19 18 18 17 17 16 16 16 15 15 15 15 15 15 14 14 13 13 13 13 12 12
25 25 26 27 29 27 26 26 26 26 26 26 25 24 23 22 21 20 20 19 19 18 18 17 17 17 17 16 16 16 15 15 15 14 14 14 14 13 13 12 12 12 12 12
26 25 24 25 24 24 25 25 25 25 25 24 24 23 22 20 20 19 19 18 18 17 17 17 17 16 16 16 16 15 15 15 14 14 14 13 13 13 12 12 12 12 11 11
24 24 24 24 23 23 23 23 24 24 24 23 23 22 20 19 19 18 18 17 17 16 16 16 16 16 16 16 15 15 15 14 14 14 13 13 13 12 12 12 12 11 11 11
23 23 23 23 22 22 22 23 23 23 22 22 21 20 19 18 18 17 17 16 16 16 16 15 15 15 15 15 15 14 14 13 13 13 13 13 12 12 12 12 12 11 11 11
22 22 22 21 21 21 21 21 21 21 21 21 20 19 18 17 17 16 16 16 15 15 15 15 15 15 15 14 14 14 13 13 12 12 12 12 12 12 11 11 11 11 11 11
21 20 20 20 20 21 21 21 20 20 20 20 19 18 18 17 16 16 15 15 15 15 15 14 14 14 14 14 13 13 13 13 12 12 11 11 11 11 11 10 10 10 10 10
19 19 20 20 19 20 20 20 20 19 19 18 18 17 17 16 16 15 15 15 14 14 14 14 14 14 13 13 13 13 13 12 12 12 11 11 11 11 10 10 10 10 10 9
19 19 19 19 19 19 19 19 19 18 18 17 17 17 16 16 15 15 14 14 14 13 13 13 13 13 13 13 13 12 12 12 12 12 11 11 11 11 10 10 10 10 9 9
18 18 18 18 18 18 18 18 18 18 17 17 16 16 15 15 14 14 14 13 13 13 13 13 12 12 12 12 12 12 12 12 12 12 11 11 11 11 11 10 10 9 9 9
17 18 18 18 18 18 17 17 17 17 16 16 15 15 15 14 14 13 13 13 13 12 12 12 12 12 12 12 12 11 11 11 11 11 11 11 11 11 10 10 10 9 9 9
17 17 17 17 17 17 17 17 16 16 15 15 15 14 14 14 13 13 12 12 12 12 11 12 12 11 11 11 11 11 11 11 11 11 11 11 11 11 10 10 10 10 9 9
16 16 17 17 17 17 17 16 16 15 15 15 14 14 13 13 13 12 12 12 11 11 11 11 11 11 11 11 11 11 11 11 11 11 10 10 10 10 10 10 10 9 9 9
16 16 16 16 16 16 16 15 15 14 14 14 14 13 13 12 12 12 11 11 11 11 11 11 11 11 11 11 11 11 11 11 11 10 10 10 10 10 10 10 10 10 9 9
15 15 15 15 15 15 14 14 14 14 13 13 13 13 12 12 11 11 11 11 11 11 11 11 11 10 11 11 11 11 11 11 11 11 10 10 10 10 10 10 10 10 10 9
14 14 14 14 14 13 13 13 13 13 13 12 12 12 11 11 11 11 10 11 11 11 10 10 10 10 10 10 10 11 11 11 11 11 11 10 10 10 10 10 10 10 9 9
13 13 13 13 13 12 12 12 12 12 12 11 11 11 11 11 11 10 10 10 10 10 10 10 10 10 10 10 10 11 11 11 11 11 10 10 10 10 10 10 10 9 9 9
12 12 12 12 12 12 12 11 11 11 11 11 11 11 11 11 10 10 10 10 10 10 10 10 10 10 10 10 10 10 11 11 11 11 10 10 10 10 10 9 9 9 9 9
11 11 11 11 11 11 11 11 11 11 11 11 10 10 10 10 10 10 10 10 10 9 9 9 10 10 10 10 10 10 10 10 10 10 10 10 10 10 9 9 9 9 9 9
10 10 10 10 10 10 10 10 10 10 10 10 10 10 10 10 10 9 9 9 9 9 9 9 9 10 10 10 10 10 10 10 10 10 10 10 10 10 10 9 9 9 9 9
10 10 10 10 10 10 10 10 10 10 10 10 10 10 10 9 9 9 9 9 9 9 9 9 9 10 10 10 10 10 10 10 10 10 10 10 10 10 9 9 9 9 9 8
Wind_Speed
16 14 14 15 17 18 17 14 11 8 6 8 7 9 11 12 12 12 12 12 12 11 10 10 9 8 8 8 7 7 7 7 7 6 6 5 5 5 5 6 6 6 6 6
16 16 15 14 16 16 17 14 13 10 5 3 8 10 11 11 11 12 11 11 12 12 11 10 10 9 8 8 7 7 7 7 7 6 6 6 6 6 6 6 6 6 7 7
13 15 15 16 14 14 13 13 12 11 6 6 7 10 11 11 10 10 12 12 12 11 11 10 9 9 8 8 8 7 7 7 7 6 6 6 6 7 7 6 7 6 7 7
12 12 16 13 12 12 12 8 6 4 3 5 9 10 10 10 10 9 10 12 12 11 11 10 10 9 8 9 8 8 7 7 7 6 7 7 7 7 7 6 6 6 7 7
11 14 14 11 10 11 10 5 2 2 4 6 8 11 9 9 9 9 10 10 11 11 11 11 11 10 9 8 8 8 8 7 7 6 6 6 7 6 6 6 6 7 6 7
10 11 12 8 7 7 8 6 2 2 3 5 7 6 7 9 11 11 11 10 10 11 11 10 10 10 9 9 8 8 8 7 7 7 7 6 6 6 5 5 6 7 8 8
14 12 8 4 3 6 9 4 4 4 4 5 4 4 9 12 11 11 11 11 11 11 10 9 9 9 9 9 8 8 8 8 8 7 7 6 5 5 5 6 7 7 8 8
13 14 8 4 2 2 4 7 6 6 6 7 8 10 12 12 12 11 11 11 11 10 10 9 9 9 10 9 9 9 8 9 8 7 7 7 6 6 5 5 6 6 6 7
5 3 5 8 8 8 6 7 6 6 6 7 8 10 11 11 11 11 10 10 10 11 11 9 9 9 10 10 9 9 9 9 8 8 7 6 6 5 4 3 4 5 5 6
2 5 7 8 9 7 6 6 5 6 6 5 7 9 11 11 10 10 9 9 10 11 11 9 9 9 9 10 9 10 9 9 8 8 8 7 6 5 5 4 4 4 5 5
3 3 5 6 7 5 5 5 5 6 5 5 6 9 10 10 9 9 8 8 9 10 10 10 10 10 10 9 10 10 9 8 8 8 9 9 9 8 7 6 5 4 5 5
1 2 2 4 4 4 4 5 5 5 5 4 5 8 9 9 9 9 9 8 9 10 10 11 10 10 9 8 9 9 8 8 7 8 8 8 9 9 13 11 12 13 11 8
2 4 4 2 2 3 3 3 3 3 4 4 5 7 9 9 9 9 9 9 10 10 10 10 10 10 9 8 8 7 7 7 7 8 8 8 8 8 7 7 11 12 11 11
2 2 1 1 2 3 2 3 3 4 4 5 5 7 9 9 9 9 9 9 10 10 10 10 10 9 8 8 7 6 7 6 6 6 6 6 6 7 7 7 6 5 5 6
2 1 2 2 1 1 1 1 2 3 5 5 6 7 9 10 10 9 9 9 10 10 10 10 10 9 8 7 7 6 5 5 4 6 6 6 6 6 6 6 6 6 6 3
4 3 4 4 3 3 2 2 3 3 4 6 6 7 8 9 10 9 9 9 10 10 10 9 9 8 8 8 7 5 5 6 5 5 5 5 5 5 5 5 6 6 5 4
6 6 5 5 5 4 4 3 4 4 5 6 7 8 9 10 10 10 9 9 9 9 9 9 9 8 8 7 7 6 6 6 5 4 4 5 4 4 4 4 5 5 5 4
7 7 7 6 5 4 4 4 4 5 6 7 8 9 10 10 11 10 10 11 10 9 8 8 8 8 7 6 5 6 7 6 5 4 4 4 4 4 4 4 5 5 5 5
8 7 6 6 5 4 4 4 5 6 7 7 8 9 10 10 10 10 11 11 11 10 8 8 9 8 8 6 4 5 6 7 6 5 5 4 4 3 4 4 5 5 5 4
5 4 4 4 4 4 4 5 5 6 7 8 9 10 11 10 10 10 10 9 7 7 9 9 8 7 8 5 4 5 6 7 7 6 5 5 4 4 4 4 4 4 4 4
3 4 4 3 3 4 5 5 6 7 7 9 10 11 11 11 10 10 9 8 8 8 9 9 7 6 6 4 4 4 6 6 6 6 5 5 4 4 3 3 3 3 3 3
3 3 3 4 4 5 5 5 6 7 8 9 10 11 11 11 10 9 8 7 8 9 7 7 6 6 5 3 4 4 5 6 5 5 4 4 4 3 3 3 3 3 3 3
1 2 3 4 5 6 6 6 7 7 9 9 10 11 11 9 9 9 8 7 8 8 6 6 8 8 5 3 3 4 5 5 5 5 5 4 4 4 3 3 3 3 3 3
2 3 4 5 6 7 7 7 7 7 8 8 8 9 10 9 7 7 7 9 8 8 6 7 9 7 5 3 3 3 4 4 4 4 5 5 4 4 3 3 3 3 3 3
4 4 5 6 6 6 7 8 9 9 9 8 9 8 7 7 8 8 9 10 10 9 7 7 7 6 4 4 3 3 3 3 2 2 3 4 5 5 4 3 3 3 3 3
4 4 4 5 5 5 6 7 7 7 8 8 7 7 7 7 9 8 8 10 11 8 8 7 7 6 5 4 3 3 4 4 3 3 2 2 3 4 4 3 3 2 2 2
6 6 5 5 5 5 6 6 6 7 7 8 8 7 8 8 8 8 9 9 9 8 7 6 6 5 5 4 4 4 4 3 3 2 2 2 2 2 3 3 2 1 2 2
Wind_Direction
258 259 241 215 220 227 235 246 251 250 220 179 168 146 141 141 143 142 141 142 139 137 133 131 128 128 125 118 114 114 111 106 100 95 89 86 82 75 68 64 62 55 50 45
248 253 249 236 223 223 228 236 245 254 263 132 130 130 133 140 147 146 146 145 141 139 138 136 135 134 126 118 115 112 108 104 100 95 89 86 88 85 78 72 66 60 54 51
243 243 247 239 230 229 230 229 235 242 222 158 134 138 140 143 145 156 152 148 144 143 142 139 137 133 131 126 124 116 109 103 98 94 87 78 79 78 73 69 68 66 63 62
246 245 242 242 231 231 236 239 236 223 169 132 127 125 128 138 146 149 147 145 143 141 138 138 136 132 129 129 127 120 113 105 100 96 90 81 78 76 72 72 70 70 68 66
240 238 236 237 222 225 221 217 232 178 135 125 129 126 124 132 138 136 132 135 139 143 141 138 139 137 133 129 126 119 113 108 103 100 94 89 86 82 79 80 79 78 74 69
241 243 239 237 230 232 221 199 157 124 123 131 140 158 141 130 128 126 127 129 133 134 131 132 134 136 135 128 121 117 112 105 100 97 96 92 87 85 86 85 86 82 74 67
241 246 244 311 234 216 219 172 95 91 98 105 98 83 117 122 121 122 124 126 126 126 126 125 128 130 125 120 115 113 110 105 100 99 99 93 88 85 88 93 93 88 83 73
230 242 238 2 144 134 80 77 79 82 87 94 97 105 117 120 119 121 126 127 125 122 121 122 124 126 122 118 116 114 111 105 98 93 93 94 89 89 89 94 99 95 90 81
218 211 80 61 80 82 80 78 73 79 89 97 113 120 123 124 126 128 129 129 130 128 124 124 124 125 126 123 122 119 115 109 103 95 87 89 94 97 100 101 103 102 97 89
127 119 103 91 86 75 72 76 69 80 94 108 117 125 130 130 131 132 132 133 133 133 131 126 123 121 121 126 128 125 120 115 112 107 97 79 70 70 67 55 72 86 89 93
172 136 102 95 86 80 76 77 68 75 89 104 119 131 137 138 137 134 133 133 134 134 131 127 122 120 124 128 132 129 127 125 120 110 103 85 71 56 66 54 49 72 77 76
205 64 77 93 81 84 75 74 67 73 83 96 120 132 140 142 141 140 139 137 135 132 130 130 128 126 129 132 135 135 136 137 134 128 122 114 105 86 58 62 61 65 68 81
48 49 55 62 37 51 63 66 64 84 101 110 117 130 139 141 143 142 140 140 138 135 133 133 131 131 135 138 141 143 143 143 137 135 136 134 132 125 113 79 65 65 68 75
64 38 8 348 24 30 48 65 78 98 103 112 121 128 135 139 140 141 143 143 139 137 137 137 135 135 137 138 139 141 140 134 134 136 139 138 141 141 140 137 123 101 79 79
300 297 255 286 345 328 41 106 115 123 129 128 128 133 138 140 140 139 140 140 139 138 140 139 135 135 135 137 139 139 139 139 135 135 137 136 139 138 136 134 130 130 131 121
279 263 247 247 254 252 233 186 161 153 148 140 137 135 134 135 134 135 137 141 143 142 140 138 135 135 136 137 137 128 116 116 123 137 139 138 141 138 132 131 131 134 136 135
257 248 247 241 236 232 226 210 183 166 154 149 141 136 135 134 134 133 133 132 130 129 132 135 136 136 138 143 146 138 135 134 142 150 134 128 128 129 132 139 135 128 123 121
257 250 246 246 243 227 207 190 176 165 158 149 142 140 142 143 143 140 135 130 126 123 124 130 131 131 136 144 146 143 145 147 148 139 126 120 126 137 139 133 131 126 129 137
250 246 240 237 230 213 188 166 160 153 152 151 148 145 141 138 138 138 137 137 138 137 136 134 135 141 141 137 136 139 143 141 136 127 121 130 146 144 140 143 143 144 143 140
243 236 229 221 207 183 159 150 147 146 143 142 139 135 135 137 137 137 136 133 134 136 139 140 145 143 142 139 143 147 144 142 144 144 148 158 158 151 151 153 148 144 144 142
237 219 209 196 179 162 157 155 150 148 143 143 141 141 140 139 138 137 136 128 122 123 129 132 137 135 134 140 172 157 147 146 151 155 160 161 157 157 156 152 146 139 136 140
229 205 185 170 162 154 148 145 147 146 143 144 144 140 138 137 135 129 125 129 132 134 141 141 134 123 126 147 163 158 152 156 161 158 155 152 156 161 160 152 143 140 142 142
199 176 164 153 150 143 137 139 141 140 142 144 143 143 142 139 140 138 133 132 138 143 142 131 127 126 135 177 174 162 158 161 160 156 155 161 170 165 153 151 148 145 144 153
116 125 132 135 134 138 139 138 134 132 133 132 132 134 136 132 128 127 125 126 126 134 128 128 135 143 176 189 175 165 153 153 161 171 171 171 166 155 151 157 164 166 170 179
123 125 126 130 131 134 136 135 132 132 130 125 126 129 131 134 135 135 134 136 139 139 135 140 148 159 182 180 172 157 143 144 155 174 167 164 164 160 160 171 189 188 187 187
125 125 124 124 124 126 132 132 132 133 132 130 130 129 125 124 127 132 137 144 146 150 147 151 165 179 187 176 171 164 162 165 180 181 155 165 172 163 161 175 188 197 201 197
116 116 118 116 113 116 118 120 124 126 126 130 129 128 128 131 135 138 139 144 150 153 151 158 165 174 177 178 181 179 168 166 171 167 169 183 181 168 162 175 186 185 208 197
Height
1467 1462 1460 1465 1468 1469 1473 1474 1482 1480 1479 1479 1478 1481 1486 1492 1497 1501 1506 1510 1514 1518 1521 1524 1526 1528 1530 1532 1533 1534 1535 1536 1536 1537 1537 1538 1538 1538 1538 1538 1537 1537 1537 1536
1472 1464 1461 1463 1463 1465 1468 1470 1473 1475 1478 1474 1477 1482 1487 1493 1497 1502 1507 1511 1515 1518 1521 1524 1526 1529 1530 1532 1533 1534 1536 1537 1537 1537 1538 1538 1538 1538 1538 1538 1538 1537 1537 1536
1479 1467 1466 1473 1463 1463 1465 1464 1469 1477 1476 1474 1478 1482 1488 1493 1498 1503 1507 1510 1515 1518 1521 1524 1526 1528 1530 1532 1533 1535 1536 1537 1538 1538 1538 1539 1539 1539 1539 1538 1538 1538 1537 1537
1479 1478 1490 1468 1453 1456 1462 1464 1464 1468 1470 1474 1479 1484 1489 1494 1498 1502 1507 1510 1514 1518 1521 1524 1526 1528 1530 1532 1534 1535 1536 1537 1538 1539 1539 1539 1539 1539 1539 1539 1539 1539 1538 1538
1480 1483 1478 1462 1454 1456 1462 1469 1466 1469 1472 1477 1481 1486 1492 1496 1499 1503 1507 1510 1514 1518 1521 1524 1526 1528 1530 1532 1534 1535 1536 1538 1538 1539 1539 1540 1540 1540 1540 1540 1540 1540 1540 1539
1479 1486 1486 1467 1455 1455 1461 1474 1470 1472 1475 1478 1481 1487 1493 1497 1500 1504 1508 1511 1515 1518 1521 1524 1526 1528 1530 1532 1534 1536 1537 1538 1539 1539 1540 1540 1540 1540 1541 1541 1541 1541 1541 1541
1481 1482 1472 1461 1456 1458 1475 1479 1473 1475 1478 1481 1484 1488 1493 1497 1501 1505 1508 1512 1515 1518 1521 1523 1526 1528 1530 1532 1534 1536 1537 1538 1539 1540 1540 1541 1541 1541 1542 1542 1543 1543 1542 1542
1478 1483 1479 1463 1461 1469 1476 1475 1476 1478 1481 1484 1487 1491 1495 1499 1503 1506 1509 1513 1515 1518 1520 1523 1525 1527 1529 1531 1533 1535 1537 1538 1539 1540 1541 1541 1542 1542 1543 1544 1544 1544 1544 1544
1469 1474 1472 1469 1471 1475 1477 1478 1480 1481 1484 1487 1490 1493 1497 1501 1504 1508 1510 1513 1515 1518 1520 1523 1525 1527 1529 1531 1533 1535 1536 1538 1539 1540 1541 1542 1543 1544 1544 1545 1545 1546 1546 1546
1467 1471 1472 1474 1476 1478 1479 1481 1483 1484 1486 1488 1491 1494 1498 1502 1505 1508 1511 1513 1516 1518 1520 1522 1524 1526 1528 1530 1532 1535 1536 1538 1539 1541 1542 1543 1544 1544 1545 1546 1546 1547 1547 1547
1469 1472 1474 1477 1479 1481 1481 1483 1484 1485 1487 1490 1492 1495 1498 1501 1505 1507 1510 1513 1515 1518 1520 1522 1524 1526 1528 1530 1532 1534 1536 1538 1540 1541 1542 1543 1544 1545 1546 1546 1547 1548 1548 1548
1473 1475 1477 1480 1482 1482 1483 1484 1486 1487 1489 1491 1493 1496 1498 1501 1504 1507 1510 1513 1515 1517 1519 1521 1524 1526 1528 1530 1532 1534 1536 1538 1540 1541 1543 1544 1545 1546 1547 1548 1549 1549 1549 1549
1476 1477 1479 1481 1482 1483 1484 1485 1487 1488 1490 1492 1494 1496 1498 1501 1504 1507 1509 1512 1514 1516 1519 1521 1523 1526 1528 1530 1532 1535 1537 1539 1540 1542 1543 1545 1546 1547 1548 1549 1550 1550 1551 1551
1478 1479 1480 1481 1482 1483 1485 1486 1488 1489 1491 1492 1494 1496 1498 1501 1503 1506 1508 1510 1513 1515 1518 1520 1523 1525 1528 1530 1532 1535 1537 1539 1541 1542 1544 1546 1547 1548 1549 1550 1551 1551 1552 1553
1479 1480 1481 1482 1483 1484 1485 1487 1488 1489 1491 1493 1495 1496 1498 1500 1503 1505 1507 1510 1512 1515 1518 1520 1522 1525 1527 1530 1532 1535 1537 1539 1541 1543 1545 1547 1548 1550 1551 1552 1552 1553 1553 1554
1479 1480 1481 1482 1483 1484 1485 1486 1488 1489 1491 1493 1494 1496 1498 1500 1502 1504 1507 1509 1512 1514 1517 1519 1522 1524 1527 1530 1532 1535 1537 1539 1541 1543 1545 1547 1549 1550 1552 1553 1554 1554 1555 1556
1479 1479 1480 1481 1482 1483 1484 1485 1487 1489 1490 1492 1494 1495 1497 1499 1502 1504 1506 1509 1512 1514 1517 1519 1521 1524 1527 1530 1533 1535 1537 1539 1541 1544 1546 1547 1549 1550 1552 1553 1554 1555 1556 1556
1477 1478 1479 1479 1480 1481 1482 1484 1486 1488 1489 1491 1493 1495 1497 1499 1501 1504 1506 1509 1511 1514 1516 1519 1521 1524 1527 1530 1533 1535 1537 1539 1541 1544 1546 1547 1549 1551 1552 1553 1554 1555 1556 1557
1474 1475 1476 1477 1478 1479 1481 1482 1484 1486 1488 1490 1492 1494 1496 1498 1501 1504 1506 1508 1511 1513 1516 1519 1521 1524 1527 1530 1533 1535 1538 1540 1542 1544 1546 1548 1550 1551 1552 1554 1555 1556 1557 1558
1472 1473 1474 1475 1476 1478 1479 1481 1483 1485 1487 1489 1491 1493 1495 1498 1501 1503 1506 1508 1511 1513 1516 1519 1522 1524 1527 1530 1533 1536 1538 1540 1542 1544 1547 1549 1550 1552 1553 1554 1555 1556 1557 1558
1470 1471 1472 1474 1475 1476 1478 1480 1482 1484 1487 1489 1491 1493 1495 1498 1501 1504 1506 1508 1511 1514 1517 1520 1522 1525 1528 1531 1534 1536 1539 1541 1543 1545 1547 1549 1551 1552 1553 1554 1555 1556 1557 1558
1468 1470 1471 1472 1474 1476 1478 1480 1482 1484 1486 1489 1491 1493 1495 1498 1501 1504 1507 1509 1511 1515 1518 1520 1523 1526 1529 1532 1534 1537 1539 1542 1544 1546 1547 1549 1550 1552 1553 1554 1555 1556 1556 1557
1468 1469 1470 1472 1474 1475 1478 1480 1482 1484 1486 1489 1491 1493 1496 1499 1502 1504 1507 1510 1513 1516 1519 1521 1524 1527 1530 1533 1535 1538 1540 1542 1544 1546 1547 1549 1550 1551 1552 1554 1554 1555 1556 1556
1467 1469 1471 1472 1474 1476 1478 1481 1483 1485 1487 1490 1492 1495 1497 1499 1503 1506 1508 1511 1514 1517 1519 1522 1525 1528 1531 1533 1536 1538 1541 1543 1544 1546 1547 1548 1550 1551 1552 1553 1554 1554 1555 1556
1468 1470 1471 1473 1475 1477 1479 1481 1483 1486 1488 1491 1493 1496 1499 1501 1503 1506 1509 1512 1515 1518 1521 1523 1526 1529 1532 1534 1537 1539 1541 1542 1544 1545 1547 1548 1549 1550 1551 1552 1553 1554 1554 1554
1469 1470 1472 1474 1476 1478 1480 1482 1485 1487 1490 1492 1495 1498 1501 1503 1505 1507 1510 1513 1516 1519 1522 1525 1528 1530 1533 1535 1537 1539 1541 1542 1544 1545 1546 1547 1549 1550 1550 1551 1552 1552 1553 1553
1470 1472 1474 1476 1478 1480 1482 1484 1486 1489 1491 1494 1496 1499 1502 1505 1507 1510 1512 1515 1518 1521 1524 1526 1529 1531 1533 1535 1537 1539 1541 1542 1543 1545 1546 1547 1548 1549 1549 1550 1550 1551 1551 1551